Time,TemperatureF,DewpointF,PressureIn,WindDirection,WindDirectionDegrees,WindSpeedMPH,WindSpeedGustMPH,Humidity,HourlyPrecipIn,Conditions,Clouds,dailyrainin,SoftwareType,DateUTC
2013-05-26 00:00:00,76.0,62.3,30.42,East,90,0.0,0.0,62,0.00,,,0.00,WUHU21623XXSP,2013-05-26 04:00:00,
2013-05-26 00:01:00,76.0,62.3,30.42,East,90,0.0,0.0,62,0.00,,,0.00,WUHU21623XXSP,2013-05-26 04:01:00,
2013-05-26 00:02:00,76.0,62.3,30.42,East,90,0.0,0.0,62,0.00,,,0.00,WUHU21623XXSP,2013-05-26 04:02:00,
2013-05-26 00:07:00,75.8,62.1,30.42,SSE,157,0.0,0.0,62,0.00,,,0.00,WUHU21623XXSP,2013-05-26 04:07:00,
2013-05-26 00:12:00,75.6,61.9,30.42,NE,45,0.0,0.0,62,0.00,,,0.00,WUHU21623XXSP,2013-05-26 04:12:00,
2013-05-26 00:17:00,75.6,61.9,30.42,ESE,112,0.0,0.0,62,0.00,,,0.00,WUHU21623XXSP,2013-05-26 04:17:00,
2013-05-26 00:22:00,75.3,61.6,30.42,ESE,112,0.0,0.0,62,0.00,,,0.00,WUHU21623XXSP,2013-05-26 04:22:00,
2013-05-26 00:27:00,75.3,62.1,30.42,ESE,112,0.0,0.0,63,0.00,,,0.00,WUHU21623XXSP,2013-05-26 04:27:00,
2013-05-26 00:32:00,75.1,61.4,30.43,NNE,22,0.0,0.0,62,0.00,,,0.00,WUHU21623XXSP,2013-05-26 04:32:00,
2013-05-26 00:37:00,74.9,61.7,30.42,SE,135,0.0,0.0,63,0.00,,,0.00,WUHU21623XXSP,2013-05-26 04:37:00,
2013-05-26 00:42:00,74.9,62.1,30.43,ESE,112,0.0,0.0,64,0.00,,,0.00,WUHU21623XXSP,2013-05-26 04:42:00,
2013-05-26 00:47:00,74.9,61.7,30.43,ESE,112,0.0,0.0,63,0.00,,,0.00,WUHU21623XXSP,2013-05-26 04:47:00,
2013-05-26 00:52:00,74.7,61.5,30.43,SE,135,0.0,0.0,63,0.00,,,0.00,WUHU21623XXSP,2013-05-26 04:52:00,
2013-05-26 00:57:00,74.7,62.4,30.43,ENE,67,0.0,0.0,65,0.00,,,0.00,WUHU21623XXSP,2013-05-26 04:57:00,
2013-05-26 01:02:00,74.6,62.3,30.44,ESE,112,0.0,0.0,65,0.00,,,0.00,WUHU21623XXSP,2013-05-26 05:02:00,
2013-05-26 01:07:00,74.6,62.7,30.43,East,90,0.0,0.0,66,0.00,,,0.00,WUHU21623XXSP,2013-05-26 05:07:00,
2013-05-26 01:12:00,74.4,62.1,30.42,East,90,0.0,0.0,65,0.00,,,0.00,WUHU21623XXSP,2013-05-26 05:12:00,
2013-05-26 01:17:00,74.4,62.1,30.43,ESE,112,0.0,0.0,65,0.00,,,0.00,WUHU21623XXSP,2013-05-26 05:17:00,
2013-05-26 01:22:00,74.4,62.5,30.43,ESE,112,0.0,0.0,66,0.00,,,0.00,WUHU21623XXSP,2013-05-26 05:22:00,
2013-05-26 01:28:00,74.0,62.1,30.42,ESE,112,0.0,0.0,66,0.00,,,0.00,WUHU21623XXSP,2013-05-26 05:28:00,
2013-05-26 01:33:00,74.0,62.1,30.42,SSE,157,0.0,0.0,66,0.00,,,0.00,WUHU21623XXSP,2013-05-26 05:33:00,
2013-05-26 01:38:00,74.0,62.1,30.42,SSE,157,0.0,0.0,66,0.00,,,0.00,WUHU21623XXSP,2013-05-26 05:38:00,
2013-05-26 01:43:00,74.0,62.6,30.42,East,90,0.0,0.0,67,0.00,,,0.00,WUHU21623XXSP,2013-05-26 05:43:00,
2013-05-26 01:48:00,73.8,62.4,30.42,ENE,67,0.0,0.0,67,0.00,,,0.00,WUHU21623XXSP,2013-05-26 05:48:00,
2013-05-26 01:53:00,73.8,62.4,30.42,ESE,112,0.0,0.0,67,0.00,,,0.00,WUHU21623XXSP,2013-05-26 05:53:00,
2013-05-26 01:58:00,73.7,61.8,30.42,ESE,112,0.0,0.0,66,0.00,,,0.00,WUHU21623XXSP,2013-05-26 05:58:00,
2013-05-26 02:03:00,73.5,61.7,30.42,ESE,112,0.0,0.0,66,0.00,,,0.00,WUHU21623XXSP,2013-05-26 06:03:00,
2013-05-26 02:08:00,73.5,62.1,30.42,East,90,0.0,0.0,67,0.00,,,0.00,WUHU21623XXSP,2013-05-26 06:08:00,
2013-05-26 02:13:00,73.5,61.7,30.42,ENE,67,0.0,0.0,66,0.00,,,0.00,WUHU21623XXSP,2013-05-26 06:13:00,
2013-05-26 02:18:00,73.3,61.5,30.42,SE,135,0.0,0.0,66,0.00,,,0.00,WUHU21623XXSP,2013-05-26 06:18:00,
2013-05-26 02:23:00,73.3,61.0,30.41,ESE,112,0.0,0.0,65,0.00,,,0.00,WUHU21623XXSP,2013-05-26 06:23:00,
2013-05-26 02:28:00,73.1,61.3,30.41,ESE,112,0.0,0.0,66,0.00,,,0.00,WUHU21623XXSP,2013-05-26 06:28:00,
2013-05-26 02:33:00,73.1,61.3,30.41,East,90,0.0,0.0,66,0.00,,,0.00,WUHU21623XXSP,2013-05-26 06:33:00,
2013-05-26 02:38:00,73.1,61.3,30.41,SE,135,0.0,0.0,66,0.00,,,0.00,WUHU21623XXSP,2013-05-26 06:38:00,
2013-05-26 02:43:00,72.9,61.1,30.40,East,90,0.0,0.0,66,0.00,,,0.00,WUHU21623XXSP,2013-05-26 06:43:00,
2013-05-26 02:48:00,72.9,60.7,30.41,ESE,112,0.0,0.0,65,0.00,,,0.00,WUHU21623XXSP,2013-05-26 06:48:00,
2013-05-26 02:53:00,72.9,61.1,30.41,SE,135,0.0,0.0,66,0.00,,,0.00,WUHU21623XXSP,2013-05-26 06:53:00,
2013-05-26 02:58:00,72.8,61.0,30.41,ESE,112,0.0,0.0,66,0.00,,,0.00,WUHU21623XXSP,2013-05-26 06:58:00,
2013-05-26 03:03:00,72.8,61.0,30.41,ESE,112,0.0,0.0,66,0.00,,,0.00,WUHU21623XXSP,2013-05-26 07:03:00,
2013-05-26 03:08:00,72.8,61.4,30.40,ESE,112,0.0,0.0,67,0.00,,,0.00,WUHU21623XXSP,2013-05-26 07:08:00,
2013-05-26 03:13:00,72.6,61.2,30.40,SE,135,0.0,0.0,67,0.00,,,0.00,WUHU21623XXSP,2013-05-26 07:13:00,
2013-05-26 03:18:00,72.6,61.2,30.40,ESE,112,0.0,0.0,67,0.00,,,0.00,WUHU21623XXSP,2013-05-26 07:18:00,
2013-05-26 03:23:00,72.6,61.2,30.40,East,90,0.0,0.0,67,0.00,,,0.00,WUHU21623XXSP,2013-05-26 07:23:00,
2013-05-26 03:28:00,72.6,61.6,30.40,ESE,112,0.0,0.0,68,0.00,,,0.00,WUHU21623XXSP,2013-05-26 07:28:00,
2013-05-26 03:33:00,72.4,61.0,30.40,SE,135,0.0,0.0,67,0.00,,,0.00,WUHU21623XXSP,2013-05-26 07:33:00,
2013-05-26 03:38:00,72.4,61.4,30.41,East,90,0.0,0.0,68,0.00,,,0.00,WUHU21623XXSP,2013-05-26 07:38:00,
2013-05-26 03:44:00,72.2,61.2,30.41,ESE,112,0.0,0.0,68,0.00,,,0.00,WUHU21623XXSP,2013-05-26 07:44:00,
2013-05-26 03:49:00,72.2,61.2,30.41,SE,135,0.0,0.0,68,0.00,,,0.00,WUHU21623XXSP,2013-05-26 07:49:00,
2013-05-26 03:54:00,72.2,61.2,30.41,SE,135,0.0,0.0,68,0.00,,,0.00,WUHU21623XXSP,2013-05-26 07:54:00,
2013-05-26 03:58:00,72.2,60.8,30.41,East,90,0.0,0.0,67,0.00,,,0.00,WUHU21623XXSP,2013-05-26 07:58:00,
2013-05-26 04:04:00,72.0,60.6,30.41,ENE,67,0.0,0.0,67,0.00,,,0.00,WUHU21623XXSP,2013-05-26 08:04:00,
2013-05-26 04:10:00,72.0,60.6,30.40,East,90,0.0,0.0,67,0.00,,,0.00,WUHU21623XXSP,2013-05-26 08:10:00,
2013-05-26 04:16:00,72.0,60.6,30.40,East,90,0.0,0.0,67,0.00,,,0.00,WUHU21623XXSP,2013-05-26 08:16:00,
2013-05-26 04:22:00,71.9,60.5,30.40,SE,135,0.0,0.0,67,0.00,,,0.00,WUHU21623XXSP,2013-05-26 08:22:00,
2013-05-26 04:29:00,71.7,60.8,30.40,ESE,112,0.0,0.0,68,0.00,,,0.00,WUHU21623XXSP,2013-05-26 08:29:00,
2013-05-26 04:35:00,71.7,60.8,30.40,SE,135,0.0,0.0,68,0.00,,,0.00,WUHU21623XXSP,2013-05-26 08:35:00,
2013-05-26 04:41:00,71.7,61.2,30.40,ESE,112,0.0,0.0,69,0.00,,,0.00,WUHU21623XXSP,2013-05-26 08:41:00,
2013-05-26 04:47:00,71.5,61.0,30.40,ESE,112,0.0,0.0,69,0.00,,,0.00,WUHU21623XXSP,2013-05-26 08:47:00,
2013-05-26 04:53:00,71.5,61.0,30.40,ESE,112,0.0,0.0,69,0.00,,,0.00,WUHU21623XXSP,2013-05-26 08:53:00,
2013-05-26 04:59:00,71.5,61.0,30.40,ESE,112,0.0,0.0,69,0.00,,,0.00,WUHU21623XXSP,2013-05-26 08:59:00,
2013-05-26 05:05:00,71.3,60.8,30.40,ENE,67,0.0,0.0,69,0.00,,,0.00,WUHU21623XXSP,2013-05-26 09:05:00,
2013-05-26 05:12:00,71.3,60.8,30.40,SE,135,0.0,0.0,69,0.00,,,0.00,WUHU21623XXSP,2013-05-26 09:12:00,
2013-05-26 05:26:00,71.3,61.2,30.40,ESE,112,0.0,0.0,70,0.00,,,0.00,WUHU21623XXSP,2013-05-26 09:26:00,
2013-05-26 05:31:00,71.1,61.0,30.40,ESE,112,0.0,0.0,70,0.00,,,0.00,WUHU21623XXSP,2013-05-26 09:31:00,
2013-05-26 05:36:00,71.1,61.0,30.40,SE,135,0.0,0.0,70,0.00,,,0.00,WUHU21623XXSP,2013-05-26 09:36:00,
2013-05-26 05:41:00,71.0,60.9,30.40,ESE,112,0.0,0.0,70,0.00,,,0.00,WUHU21623XXSP,2013-05-26 09:41:00,
2013-05-26 05:46:00,71.0,60.9,30.41,SE,135,0.0,0.0,70,0.00,,,0.00,WUHU21623XXSP,2013-05-26 09:46:00,
2013-05-26 05:51:00,71.0,60.9,30.41,SE,135,0.0,0.0,70,0.00,,,0.00,WUHU21623XXSP,2013-05-26 09:51:00,
2013-05-26 05:56:00,71.0,61.3,30.41,ESE,112,0.0,0.0,71,0.00,,,0.00,WUHU21623XXSP,2013-05-26 09:56:00,
2013-05-26 06:01:00,71.0,61.3,30.41,East,90,0.0,0.0,71,0.00,,,0.00,WUHU21623XXSP,2013-05-26 10:01:00,
2013-05-26 06:06:00,70.8,61.1,30.41,ESE,112,0.0,0.0,71,0.00,,,0.00,WUHU21623XXSP,2013-05-26 10:06:00,
2013-05-26 06:11:00,70.8,61.1,30.41,SSE,157,0.0,0.0,71,0.00,,,0.00,WUHU21623XXSP,2013-05-26 10:11:00,
2013-05-26 06:16:00,70.8,61.1,30.41,ESE,112,0.0,0.0,71,0.00,,,0.00,WUHU21623XXSP,2013-05-26 10:16:00,
2013-05-26 06:21:00,70.8,61.1,30.42,ESE,112,0.0,0.0,71,0.00,,,0.00,WUHU21623XXSP,2013-05-26 10:21:00,
2013-05-26 06:26:00,70.8,61.1,30.42,ESE,112,0.0,0.0,71,0.00,,,0.00,WUHU21623XXSP,2013-05-26 10:26:00,
2013-05-26 06:31:00,70.8,61.1,30.42,SE,135,0.0,0.0,71,0.00,,,0.00,WUHU21623XXSP,2013-05-26 10:31:00,
2013-05-26 06:36:00,70.8,61.5,30.42,ENE,67,0.0,0.0,72,0.00,,,0.00,WUHU21623XXSP,2013-05-26 10:36:00,
2013-05-26 06:41:00,70.8,61.5,30.42,NE,45,0.0,0.0,72,0.00,,,0.00,WUHU21623XXSP,2013-05-26 10:41:00,
2013-05-26 06:46:00,70.8,61.5,30.42,ENE,67,0.0,0.0,72,0.00,,,0.00,WUHU21623XXSP,2013-05-26 10:46:00,
2013-05-26 06:51:00,70.8,61.9,30.42,East,90,0.0,0.0,73,0.00,,,0.00,WUHU21623XXSP,2013-05-26 10:51:00,
2013-05-26 06:57:00,70.8,61.9,30.42,ENE,67,0.0,0.0,73,0.00,,,0.00,WUHU21623XXSP,2013-05-26 10:57:00,
2013-05-26 07:01:00,70.6,61.7,30.42,East,90,0.0,0.0,73,0.00,,,0.00,WUHU21623XXSP,2013-05-26 11:01:00,
2013-05-26 07:07:00,70.8,61.9,30.42,ENE,67,0.0,0.0,73,0.00,,,0.00,WUHU21623XXSP,2013-05-26 11:07:00,
2013-05-26 07:12:00,70.8,61.9,30.42,ESE,112,0.0,0.0,73,0.00,,,0.00,WUHU21623XXSP,2013-05-26 11:12:00,
2013-05-26 07:17:00,70.8,62.3,30.42,ENE,67,0.0,0.0,74,0.00,,,0.00,WUHU21623XXSP,2013-05-26 11:17:00,
2013-05-26 07:22:00,71.0,62.4,30.42,ENE,67,0.0,0.0,74,0.00,,,0.00,WUHU21623XXSP,2013-05-26 11:22:00,
2013-05-26 07:27:00,71.1,62.2,30.43,ESE,112,0.0,0.0,73,0.00,,,0.00,WUHU21623XXSP,2013-05-26 11:27:00,
2013-05-26 07:32:00,71.3,62.4,30.43,ENE,67,0.0,0.0,73,0.00,,,0.00,WUHU21623XXSP,2013-05-26 11:32:00,
2013-05-26 07:37:00,71.5,62.6,30.43,ESE,112,0.0,0.0,73,0.00,,,0.00,WUHU21623XXSP,2013-05-26 11:37:00,
2013-05-26 07:42:00,73.7,64.3,30.43,North,0,0.0,0.0,72,0.00,,,0.00,WUHU21623XXSP,2013-05-26 11:42:00,
2013-05-26 07:47:00,76.2,65.1,30.43,East,90,0.0,0.0,68,0.00,,,0.00,WUHU21623XXSP,2013-05-26 11:47:00,
2013-05-26 07:52:00,77.1,64.7,30.42,ESE,112,0.0,0.0,65,0.00,,,0.00,WUHU21623XXSP,2013-05-26 11:52:00,
2013-05-26 07:57:00,76.7,63.8,30.42,ENE,67,0.0,0.0,64,0.00,,,0.00,WUHU21623XXSP,2013-05-26 11:57:00,
2013-05-26 08:02:00,76.2,63.8,30.42,ENE,67,0.0,0.0,65,0.00,,,0.00,WUHU21623XXSP,2013-05-26 12:02:00,
2013-05-26 08:07:00,76.5,64.1,30.43,SE,135,0.0,0.0,65,0.00,,,0.00,WUHU21623XXSP,2013-05-26 12:07:00,
2013-05-26 08:12:00,77.1,64.2,30.44,ENE,67,0.0,0.0,64,0.00,,,0.00,WUHU21623XXSP,2013-05-26 12:12:00,
2013-05-26 08:17:00,77.6,64.2,30.43,NE,45,0.0,0.0,63,0.00,,,0.00,WUHU21623XXSP,2013-05-26 12:17:00,
2013-05-26 08:22:00,77.6,63.8,30.44,East,90,0.0,0.0,62,0.00,,,0.00,WUHU21623XXSP,2013-05-26 12:22:00,
2013-05-26 08:27:00,77.6,63.8,30.44,ENE,67,0.0,0.0,62,0.00,,,0.00,WUHU21623XXSP,2013-05-26 12:27:00,
2013-05-26 08:32:00,77.6,63.3,30.45,East,90,0.0,0.0,61,0.00,,,0.00,WUHU21623XXSP,2013-05-26 12:32:00,
2013-05-26 08:37:00,77.6,63.3,30.45,ENE,67,0.0,0.0,61,0.00,,,0.00,WUHU21623XXSP,2013-05-26 12:37:00,
2013-05-26 08:42:00,77.6,62.8,30.45,ENE,67,0.0,0.0,60,0.00,,,0.00,WUHU21623XXSP,2013-05-26 12:42:00,
2013-05-26 08:47:00,77.6,61.9,30.45,ENE,67,0.0,0.0,58,0.00,,,0.00,WUHU21623XXSP,2013-05-26 12:47:00,
2013-05-26 08:52:00,77.8,62.0,30.45,East,90,0.0,0.0,58,0.00,,,0.00,WUHU21623XXSP,2013-05-26 12:52:00,
2013-05-26 08:57:00,78.0,62.2,30.45,NE,45,0.0,0.0,58,0.00,,,0.00,WUHU21623XXSP,2013-05-26 12:57:00,
2013-05-26 09:03:00,78.5,62.2,30.45,ESE,112,0.0,0.0,57,0.00,,,0.00,WUHU21623XXSP,2013-05-26 13:03:00,
2013-05-26 09:08:00,78.9,62.1,30.46,ENE,67,0.0,0.0,56,0.00,,,0.00,WUHU21623XXSP,2013-05-26 13:08:00,
2013-05-26 09:13:00,79.4,62.0,30.46,ENE,67,0.0,0.0,55,0.00,,,0.00,WUHU21623XXSP,2013-05-26 13:13:00,
2013-05-26 09:18:00,79.8,61.3,30.46,ESE,112,0.0,0.0,53,0.00,,,0.00,WUHU21623XXSP,2013-05-26 13:18:00,
2013-05-26 09:23:00,79.8,61.3,30.46,SE,135,0.0,0.0,53,0.00,,,0.00,WUHU21623XXSP,2013-05-26 13:23:00,
2013-05-26 09:28:00,80.1,61.0,30.46,NE,45,0.0,0.0,52,0.00,,,0.00,WUHU21623XXSP,2013-05-26 13:28:00,
2013-05-26 09:33:00,80.1,60.5,30.46,East,90,0.0,0.0,51,0.00,,,0.00,WUHU21623XXSP,2013-05-26 13:33:00,
2013-05-26 09:38:00,80.1,60.5,30.46,NE,45,0.0,0.0,51,0.00,,,0.00,WUHU21623XXSP,2013-05-26 13:38:00,
2013-05-26 09:43:00,80.1,61.0,30.46,East,90,0.0,0.0,52,0.00,,,0.00,WUHU21623XXSP,2013-05-26 13:43:00,
2013-05-26 09:48:00,80.3,60.7,30.46,NE,45,0.0,0.0,51,0.00,,,0.00,WUHU21623XXSP,2013-05-26 13:48:00,
2013-05-26 09:53:00,80.3,60.1,30.46,ENE,67,0.0,0.0,50,0.00,,,0.00,WUHU21623XXSP,2013-05-26 13:53:00,
2013-05-26 09:58:00,80.5,60.8,30.46,SE,135,0.0,0.0,51,0.00,,,0.00,WUHU21623XXSP,2013-05-26 13:58:00,
2013-05-26 10:03:00,81.0,60.7,30.47,ESE,112,0.0,0.0,50,0.00,,,0.00,WUHU21623XXSP,2013-05-26 14:03:00,
2013-05-26 10:08:00,81.0,60.1,30.47,NE,45,0.0,0.0,49,0.00,,,0.00,WUHU21623XXSP,2013-05-26 14:08:00,
2013-05-26 10:13:00,81.2,60.9,30.47,SE,135,0.0,0.0,50,0.00,,,0.00,WUHU21623XXSP,2013-05-26 14:13:00,
2013-05-26 10:18:00,81.9,61.0,30.47,East,90,0.0,0.0,49,0.00,,,0.00,WUHU21623XXSP,2013-05-26 14:18:00,
2013-05-26 10:23:00,81.9,60.4,30.47,ESE,112,0.0,0.0,48,0.00,,,0.00,WUHU21623XXSP,2013-05-26 14:23:00,
2013-05-26 10:28:00,81.8,60.3,30.47,SE,135,0.0,0.0,48,0.00,,,0.00,WUHU21623XXSP,2013-05-26 14:28:00,
2013-05-26 10:33:00,82.3,60.7,30.47,East,90,0.0,0.0,48,0.00,,,0.00,WUHU21623XXSP,2013-05-26 14:33:00,
2013-05-26 10:38:00,83.0,60.1,30.47,ESE,112,0.0,0.0,46,0.00,,,0.00,WUHU21623XXSP,2013-05-26 14:38:00,
2013-05-26 10:43:00,83.0,60.1,30.47,ENE,67,0.0,0.0,46,0.00,,,0.00,WUHU21623XXSP,2013-05-26 14:43:00,
2013-05-26 10:48:00,82.8,60.0,30.47,NNE,22,0.0,0.0,46,0.00,,,0.00,WUHU21623XXSP,2013-05-26 14:48:00,
2013-05-26 10:53:00,83.0,60.1,30.47,ENE,67,0.0,0.0,46,0.00,,,0.00,WUHU21623XXSP,2013-05-26 14:53:00,
2013-05-26 10:58:00,83.2,59.7,30.47,NE,45,0.0,0.0,45,0.00,,,0.00,WUHU21623XXSP,2013-05-26 14:58:00,
2013-05-26 11:03:00,83.2,59.7,30.47,SE,135,0.0,0.0,45,0.00,,,0.00,WUHU21623XXSP,2013-05-26 15:03:00,
2013-05-26 11:08:00,83.9,59.7,30.47,SE,135,0.0,0.0,44,0.00,,,0.00,WUHU21623XXSP,2013-05-26 15:08:00,
2013-05-26 11:13:00,84.3,60.0,30.47,North,0,0.0,0.0,44,0.00,,,0.00,WUHU21623XXSP,2013-05-26 15:13:00,
2013-05-26 11:18:00,84.3,60.0,30.46,ENE,67,0.0,0.0,44,0.00,,,0.00,WUHU21623XXSP,2013-05-26 15:18:00,
2013-05-26 11:23:00,84.8,60.5,30.46,SE,135,0.0,0.0,44,0.00,,,0.00,WUHU21623XXSP,2013-05-26 15:23:00,
2013-05-26 11:28:00,85.0,60.7,30.46,SE,135,0.0,0.0,44,0.00,,,0.00,WUHU21623XXSP,2013-05-26 15:28:00,
2013-05-26 11:33:00,85.4,59.7,30.46,East,90,0.0,0.0,42,0.00,,,0.00,WUHU21623XXSP,2013-05-26 15:33:00,
2013-05-26 11:39:00,84.8,59.1,30.46,NE,45,0.0,0.0,42,0.00,,,0.00,WUHU21623XXSP,2013-05-26 15:39:00,
2013-05-26 11:44:00,84.8,59.8,30.46,ENE,67,0.0,0.0,43,0.00,,,0.00,WUHU21623XXSP,2013-05-26 15:44:00,
2013-05-26 11:49:00,85.0,59.3,30.46,NE,45,0.0,0.0,42,0.00,,,0.00,WUHU21623XXSP,2013-05-26 15:49:00,
2013-05-26 11:54:00,85.2,60.2,30.46,SSW,202,0.0,0.0,43,0.00,,,0.00,WUHU21623XXSP,2013-05-26 15:54:00,
2013-05-26 11:59:00,85.9,60.1,30.46,ENE,67,0.0,0.0,42,0.00,,,0.00,WUHU21623XXSP,2013-05-26 15:59:00,
2013-05-26 12:04:00,86.1,58.2,30.45,NNE,22,0.0,0.0,39,0.00,,,0.00,WUHU21623XXSP,2013-05-26 16:04:00,
2013-05-26 12:09:00,86.1,59.6,30.46,ESE,112,0.0,0.0,41,0.00,,,0.00,WUHU21623XXSP,2013-05-26 16:09:00,
2013-05-26 12:14:00,85.9,58.0,30.45,ENE,67,0.0,0.0,39,0.00,,,0.00,WUHU21623XXSP,2013-05-26 16:14:00,
2013-05-26 12:19:00,86.1,58.2,30.45,South,180,0.0,0.0,39,0.00,,,0.00,WUHU21623XXSP,2013-05-26 16:19:00,
2013-05-26 12:24:00,87.0,59.7,30.45,ENE,67,0.0,0.0,40,0.00,,,0.00,WUHU21623XXSP,2013-05-26 16:24:00,
2013-05-26 12:29:00,87.0,59.7,30.45,ENE,67,0.0,0.0,40,0.00,,,0.00,WUHU21623XXSP,2013-05-26 16:29:00,
2013-05-26 12:34:00,86.6,57.9,30.45,ENE,67,0.0,0.0,38,0.00,,,0.00,WUHU21623XXSP,2013-05-26 16:34:00,
2013-05-26 12:39:00,87.0,58.3,30.45,NE,45,0.0,0.0,38,0.00,,,0.00,WUHU21623XXSP,2013-05-26 16:39:00,
2013-05-26 12:44:00,87.5,57.9,30.45,SE,135,0.0,0.0,37,0.00,,,0.00,WUHU21623XXSP,2013-05-26 16:44:00,
2013-05-26 12:49:00,88.2,58.6,30.45,ESE,112,0.0,0.0,37,0.00,,,0.00,WUHU21623XXSP,2013-05-26 16:49:00,
2013-05-26 12:54:00,88.1,57.7,30.45,NNE,22,0.0,0.0,36,0.00,,,0.00,WUHU21623XXSP,2013-05-26 16:54:00,
2013-05-26 12:59:00,88.4,58.0,30.45,ESE,112,0.0,0.0,36,0.00,,,0.00,WUHU21623XXSP,2013-05-26 16:59:00,
2013-05-26 13:04:00,88.8,57.5,30.45,ESE,112,0.0,0.0,35,0.00,,,0.00,WUHU21623XXSP,2013-05-26 17:04:00,
2013-05-26 13:09:00,88.8,58.3,30.44,East,90,0.0,0.0,36,0.00,,,0.00,WUHU21623XXSP,2013-05-26 17:09:00,
2013-05-26 13:14:00,88.4,58.0,30.45,ENE,67,0.0,0.0,36,0.00,,,0.00,WUHU21623XXSP,2013-05-26 17:14:00,
2013-05-26 13:19:00,88.4,58.0,30.44,ENE,67,0.0,0.0,36,0.00,,,0.00,WUHU21623XXSP,2013-05-26 17:19:00,
2013-05-26 13:24:00,88.4,57.2,30.44,ESE,112,0.0,0.0,35,0.00,,,0.00,WUHU21623XXSP,2013-05-26 17:24:00,
2013-05-26 13:29:00,88.6,58.1,30.44,SE,135,0.0,0.0,36,0.00,,,0.00,WUHU21623XXSP,2013-05-26 17:29:00,
2013-05-26 13:34:00,89.0,57.7,30.44,SSW,202,0.0,0.0,35,0.00,,,0.00,WUHU21623XXSP,2013-05-26 17:34:00,
2013-05-26 13:39:00,89.3,58.0,30.44,SSE,157,0.0,0.0,35,0.00,,,0.00,WUHU21623XXSP,2013-05-26 17:39:00,
2013-05-26 13:44:00,90.2,57.1,30.44,SE,135,0.0,0.0,33,0.00,,,0.00,WUHU21623XXSP,2013-05-26 17:44:00,
2013-05-26 13:49:00,90.9,57.7,30.44,SE,135,0.0,0.0,33,0.00,,,0.00,WUHU21623XXSP,2013-05-26 17:49:00,
2013-05-26 13:54:00,90.9,56.0,30.43,ENE,67,0.0,0.0,31,0.00,,,0.00,WUHU21623XXSP,2013-05-26 17:54:00,
2013-05-26 14:00:00,90.9,56.9,30.44,SSE,157,0.0,0.0,32,0.00,,,0.00,WUHU21623XXSP,2013-05-26 18:00:00,
2013-05-26 14:05:00,91.3,57.2,30.44,SSE,157,0.0,0.0,32,0.00,,,0.00,WUHU21623XXSP,2013-05-26 18:05:00,
2013-05-26 14:10:00,92.0,56.9,30.43,SSE,157,0.0,0.0,31,0.00,,,0.00,WUHU21623XXSP,2013-05-26 18:10:00,
2013-05-26 14:15:00,92.4,56.4,30.43,SE,135,0.0,0.0,30,0.00,,,0.00,WUHU21623XXSP,2013-05-26 18:15:00,
2013-05-26 14:20:00,92.6,54.7,30.43,ENE,67,0.0,0.0,28,0.00,,,0.00,WUHU21623XXSP,2013-05-26 18:20:00,
2013-05-26 14:25:00,91.5,55.6,30.42,ESE,112,0.0,0.0,30,0.00,,,0.00,WUHU21623XXSP,2013-05-26 18:25:00,
2013-05-26 14:30:00,91.5,55.6,30.42,South,180,0.0,0.0,30,0.00,,,0.00,WUHU21623XXSP,2013-05-26 18:30:00,
2013-05-26 14:35:00,92.0,56.0,30.42,SSE,157,0.0,0.0,30,0.00,,,0.00,WUHU21623XXSP,2013-05-26 18:35:00,
2013-05-26 14:40:00,92.0,54.1,30.42,ENE,67,0.0,0.0,28,0.00,,,0.00,WUHU21623XXSP,2013-05-26 18:40:00,
2013-05-26 14:45:00,91.5,54.7,30.42,ENE,67,0.0,0.0,29,0.00,,,0.00,WUHU21623XXSP,2013-05-26 18:45:00,
2013-05-26 14:50:00,90.9,55.1,30.42,SE,135,0.0,0.0,30,0.00,,,0.00,WUHU21623XXSP,2013-05-26 18:50:00,
2013-05-26 14:55:00,90.6,54.8,30.42,SSE,157,0.0,0.0,30,0.00,,,0.00,WUHU21623XXSP,2013-05-26 18:55:00,
2013-05-26 15:00:00,90.0,54.3,30.42,ESE,112,0.0,0.0,30,0.00,,,0.00,WUHU21623XXSP,2013-05-26 19:00:00,
2013-05-26 15:05:00,90.0,54.3,30.42,East,90,0.0,0.0,30,0.00,,,0.00,WUHU21623XXSP,2013-05-26 19:05:00,
2013-05-26 15:10:00,90.6,54.8,30.41,South,180,0.0,0.0,30,0.00,,,0.00,WUHU21623XXSP,2013-05-26 19:10:00,
2013-05-26 15:15:00,90.9,55.1,30.41,SSE,157,0.0,0.0,30,0.00,,,0.00,WUHU21623XXSP,2013-05-26 19:15:00,
2013-05-26 15:20:00,91.8,55.9,30.41,South,180,0.0,0.0,30,0.00,,,0.00,WUHU21623XXSP,2013-05-26 19:20:00,
2013-05-26 15:25:00,92.7,54.7,30.41,South,180,0.0,0.0,28,0.00,,,0.00,WUHU21623XXSP,2013-05-26 19:25:00,
2013-05-26 15:30:00,93.6,54.5,30.41,South,180,0.0,0.0,27,0.00,,,0.00,WUHU21623XXSP,2013-05-26 19:30:00,
2013-05-26 15:35:00,93.3,53.2,30.41,SE,135,0.0,0.0,26,0.00,,,0.00,WUHU21623XXSP,2013-05-26 19:35:00,
2013-05-26 15:40:00,93.1,53.1,30.40,SE,135,0.0,0.0,26,0.00,,,0.00,WUHU21623XXSP,2013-05-26 19:40:00,
2013-05-26 15:45:00,92.9,52.9,30.41,ESE,112,0.0,0.0,26,0.00,,,0.00,WUHU21623XXSP,2013-05-26 19:45:00,
2013-05-26 15:50:00,92.9,53.9,30.41,ESE,112,0.0,0.0,27,0.00,,,0.00,WUHU21623XXSP,2013-05-26 19:50:00,
2013-05-26 15:55:00,93.3,54.3,30.40,ENE,67,0.0,0.0,27,0.00,,,0.00,WUHU21623XXSP,2013-05-26 19:55:00,
2013-05-26 16:00:00,93.3,54.3,30.40,ESE,112,0.0,0.0,27,0.00,,,0.00,WUHU21623XXSP,2013-05-26 20:00:00,
2013-05-26 16:05:00,92.4,54.5,30.39,ENE,67,0.0,0.0,28,0.00,,,0.00,WUHU21623XXSP,2013-05-26 20:05:00,
2013-05-26 16:10:00,91.5,53.7,30.39,ENE,67,0.0,0.0,28,0.00,,,0.00,WUHU21623XXSP,2013-05-26 20:10:00,
2013-05-26 16:15:00,91.1,54.3,30.39,ESE,112,0.0,0.0,29,0.00,,,0.00,WUHU21623XXSP,2013-05-26 20:15:00,
2013-05-26 16:20:00,90.9,55.1,30.39,NNE,22,0.0,0.0,30,0.00,,,0.00,WUHU21623XXSP,2013-05-26 20:20:00,
2013-05-26 16:25:00,90.9,55.1,30.39,NE,45,0.0,0.0,30,0.00,,,0.00,WUHU21623XXSP,2013-05-26 20:25:00,
2013-05-26 16:30:00,90.9,55.1,30.39,ENE,67,0.0,0.0,30,0.00,,,0.00,WUHU21623XXSP,2013-05-26 20:30:00,
2013-05-26 16:35:00,90.8,55.0,30.39,SE,135,0.0,0.0,30,0.00,,,0.00,WUHU21623XXSP,2013-05-26 20:35:00,
2013-05-26 16:40:00,90.2,53.5,30.39,ESE,112,0.0,0.0,29,0.00,,,0.00,WUHU21623XXSP,2013-05-26 20:40:00,
2013-05-26 16:45:00,90.2,54.5,30.39,ESE,112,0.0,0.0,30,0.00,,,0.00,WUHU21623XXSP,2013-05-26 20:45:00,
2013-05-26 16:50:00,90.2,54.5,30.38,SE,135,0.0,0.0,30,0.00,,,0.00,WUHU21623XXSP,2013-05-26 20:50:00,
2013-05-26 16:56:00,90.4,53.7,30.38,ENE,67,0.0,0.0,29,0.00,,,0.00,WUHU21623XXSP,2013-05-26 20:56:00,
2013-05-26 17:01:00,90.2,53.5,30.38,ESE,112,0.0,0.0,29,0.00,,,0.00,WUHU21623XXSP,2013-05-26 21:01:00,
2013-05-26 17:06:00,90.0,53.4,30.38,ESE,112,0.0,0.0,29,0.00,,,0.00,WUHU21623XXSP,2013-05-26 21:06:00,
2013-05-26 17:11:00,89.9,54.2,30.38,SE,135,0.0,0.0,30,0.00,,,0.00,WUHU21623XXSP,2013-05-26 21:11:00,
2013-05-26 17:16:00,90.6,53.9,30.38,ESE,112,0.0,0.0,29,0.00,,,0.00,WUHU21623XXSP,2013-05-26 21:16:00,
2013-05-26 17:21:00,90.9,53.2,30.37,ESE,112,0.0,0.0,28,0.00,,,0.00,WUHU21623XXSP,2013-05-26 21:21:00,
2013-05-26 17:26:00,90.9,53.2,30.37,ESE,112,0.0,0.0,28,0.00,,,0.00,WUHU21623XXSP,2013-05-26 21:26:00,
2013-05-26 17:31:00,90.6,54.8,30.37,SSE,157,0.0,0.0,30,0.00,,,0.00,WUHU21623XXSP,2013-05-26 21:31:00,
2013-05-26 17:36:00,90.2,55.4,30.37,SE,135,0.0,0.0,31,0.00,,,0.00,WUHU21623XXSP,2013-05-26 21:36:00,
2013-05-26 17:41:00,90.2,54.5,30.37,SE,135,0.0,0.0,30,0.00,,,0.00,WUHU21623XXSP,2013-05-26 21:41:00,
2013-05-26 17:46:00,90.0,55.2,30.37,ENE,67,0.0,0.0,31,0.00,,,0.00,WUHU21623XXSP,2013-05-26 21:46:00,
2013-05-26 17:51:00,89.3,54.6,30.37,SE,135,0.0,0.0,31,0.00,,,0.00,WUHU21623XXSP,2013-05-26 21:51:00,
2013-05-26 17:56:00,89.1,54.4,30.37,ESE,112,0.0,0.0,31,0.00,,,0.00,WUHU21623XXSP,2013-05-26 21:56:00,
2013-05-26 18:01:00,88.4,53.8,30.36,SE,135,0.0,0.0,31,0.00,,,0.00,WUHU21623XXSP,2013-05-26 22:01:00,
2013-05-26 18:06:00,87.9,54.2,30.36,ESE,112,0.0,0.0,32,0.00,,,0.00,WUHU21623XXSP,2013-05-26 22:06:00,
2013-05-26 18:11:00,87.3,53.7,30.36,ESE,112,0.0,0.0,32,0.00,,,0.00,WUHU21623XXSP,2013-05-26 22:11:00,
2013-05-26 18:16:00,87.0,54.3,30.36,ESE,112,0.0,0.0,33,0.00,,,0.00,WUHU21623XXSP,2013-05-26 22:16:00,
2013-05-26 18:21:00,86.6,54.0,30.36,SE,135,0.0,0.0,33,0.00,,,0.00,WUHU21623XXSP,2013-05-26 22:21:00,
2013-05-26 18:26:00,86.6,54.8,30.36,SSE,157,0.0,0.0,34,0.00,,,0.00,WUHU21623XXSP,2013-05-26 22:26:00,
2013-05-26 18:31:00,86.6,54.8,30.36,SE,135,0.0,0.0,34,0.00,,,0.00,WUHU21623XXSP,2013-05-26 22:31:00,
2013-05-26 18:36:00,86.6,55.6,30.35,SE,135,0.0,0.0,35,0.00,,,0.00,WUHU21623XXSP,2013-05-26 22:36:00,
2013-05-26 18:41:00,86.4,55.4,30.36,SE,135,0.0,0.0,35,0.00,,,0.00,WUHU21623XXSP,2013-05-26 22:41:00,
2013-05-26 18:46:00,86.4,56.2,30.36,SSE,157,0.0,0.0,36,0.00,,,0.00,WUHU21623XXSP,2013-05-26 22:46:00,
2013-05-26 18:51:00,86.3,56.1,30.36,ESE,112,0.0,0.0,36,0.00,,,0.00,WUHU21623XXSP,2013-05-26 22:51:00,
2013-05-26 18:56:00,86.1,55.9,30.36,SE,135,0.0,0.0,36,0.00,,,0.00,WUHU21623XXSP,2013-05-26 22:56:00,
2013-05-26 19:01:00,85.7,55.6,30.35,ESE,112,0.0,0.0,36,0.00,,,0.00,WUHU21623XXSP,2013-05-26 23:01:00,
2013-05-26 19:06:00,85.5,56.2,30.35,East,90,0.0,0.0,37,0.00,,,0.00,WUHU21623XXSP,2013-05-26 23:06:00,
2013-05-26 19:11:00,85.7,56.3,30.36,ENE,67,0.0,0.0,37,0.00,,,0.00,WUHU21623XXSP,2013-05-26 23:11:00,
2013-05-26 19:16:00,86.1,56.7,30.35,ESE,112,0.0,0.0,37,0.00,,,0.00,WUHU21623XXSP,2013-05-26 23:16:00,
2013-05-26 19:21:00,86.1,56.7,30.36,SE,135,0.0,0.0,37,0.00,,,0.00,WUHU21623XXSP,2013-05-26 23:21:00,
2013-05-26 19:26:00,85.7,55.6,30.36,SE,135,0.0,0.0,36,0.00,,,0.00,WUHU21623XXSP,2013-05-26 23:26:00,
2013-05-26 19:31:00,85.5,55.4,30.36,ESE,112,0.0,0.0,36,0.00,,,0.00,WUHU21623XXSP,2013-05-26 23:31:00,
2013-05-26 19:36:00,85.4,55.3,30.36,ESE,112,0.0,0.0,36,0.00,,,0.00,WUHU21623XXSP,2013-05-26 23:36:00,
2013-05-26 19:42:00,85.4,55.3,30.36,SE,135,0.0,0.0,36,0.00,,,0.00,WUHU21623XXSP,2013-05-26 23:42:00,
2013-05-26 19:47:00,85.5,55.4,30.36,ESE,112,0.0,0.0,36,0.00,,,0.00,WUHU21623XXSP,2013-05-26 23:47:00,
2013-05-26 19:52:00,84.8,55.5,30.37,SE,135,0.0,0.0,37,0.00,,,0.00,WUHU21623XXSP,2013-05-26 23:52:00,
2013-05-26 19:57:00,84.3,55.1,30.37,ESE,112,0.0,0.0,37,0.00,,,0.00,WUHU21623XXSP,2013-05-26 23:57:00,
2013-05-26 20:02:00,83.7,54.6,30.37,NE,45,0.0,0.0,37,0.00,,,0.00,WUHU21623XXSP,2013-05-27 00:02:00,
2013-05-26 20:07:00,83.4,54.3,30.37,ENE,67,0.0,0.0,37,0.00,,,0.00,WUHU21623XXSP,2013-05-27 00:07:00,
2013-05-26 20:12:00,83.0,53.9,30.37,ESE,112,0.0,0.0,37,0.00,,,0.00,WUHU21623XXSP,2013-05-27 00:12:00,
2013-05-26 20:17:00,82.5,54.2,30.37,ESE,112,0.0,0.0,38,0.00,,,0.00,WUHU21623XXSP,2013-05-27 00:17:00,
2013-05-26 20:22:00,82.3,54.1,30.37,East,90,0.0,0.0,38,0.00,,,0.00,WUHU21623XXSP,2013-05-27 00:22:00,
2013-05-26 20:27:00,81.9,53.7,30.37,East,90,0.0,0.0,38,0.00,,,0.00,WUHU21623XXSP,2013-05-27 00:27:00,
2013-05-26 20:32:00,81.8,54.3,30.37,ESE,112,0.0,0.0,39,0.00,,,0.00,WUHU21623XXSP,2013-05-27 00:32:00,
2013-05-26 20:37:00,81.6,54.2,30.37,ESE,112,0.0,0.0,39,0.00,,,0.00,WUHU21623XXSP,2013-05-27 00:37:00,
2013-05-26 20:42:00,81.4,54.0,30.37,NE,45,0.0,0.0,39,0.00,,,0.00,WUHU21623XXSP,2013-05-27 00:42:00,
2013-05-26 20:47:00,81.2,53.8,30.37,ENE,67,0.0,0.0,39,0.00,,,0.00,WUHU21623XXSP,2013-05-27 00:47:00,
2013-05-26 20:52:00,81.2,54.5,30.37,ENE,67,0.0,0.0,40,0.00,,,0.00,WUHU21623XXSP,2013-05-27 00:52:00,
2013-05-26 20:57:00,81.0,55.0,30.37,ESE,112,0.0,0.0,41,0.00,,,0.00,WUHU21623XXSP,2013-05-27 00:57:00,
2013-05-26 21:02:00,80.7,54.8,30.37,ESE,112,0.0,0.0,41,0.00,,,0.00,WUHU21623XXSP,2013-05-27 01:02:00,
2013-05-26 21:07:00,80.5,55.3,30.37,SE,135,0.0,0.0,42,0.00,,,0.00,WUHU21623XXSP,2013-05-27 01:07:00,
2013-05-26 21:12:00,80.3,54.4,30.37,ESE,112,0.0,0.0,41,0.00,,,0.00,WUHU21623XXSP,2013-05-27 01:12:00,
2013-05-26 21:17:00,80.3,54.4,30.38,ENE,67,0.0,0.0,41,0.00,,,0.00,WUHU21623XXSP,2013-05-27 01:17:00,
2013-05-26 21:22:00,80.3,55.1,30.37,ENE,67,0.0,0.0,42,0.00,,,0.00,WUHU21623XXSP,2013-05-27 01:22:00,
2013-05-26 21:27:00,80.3,55.1,30.38,NNE,22,0.0,0.0,42,0.00,,,0.00,WUHU21623XXSP,2013-05-27 01:27:00,
2013-05-26 21:32:00,80.1,54.9,30.37,NNE,22,0.0,0.0,42,0.00,,,0.00,WUHU21623XXSP,2013-05-27 01:32:00,
2013-05-26 21:37:00,79.8,54.6,30.38,ESE,112,0.0,0.0,42,0.00,,,0.00,WUHU21623XXSP,2013-05-27 01:37:00,
2013-05-26 21:42:00,79.4,54.9,30.38,ENE,67,0.0,0.0,43,0.00,,,0.00,WUHU21623XXSP,2013-05-27 01:42:00,
2013-05-26 21:47:00,79.2,56.0,30.38,NE,45,0.0,0.0,45,0.00,,,0.00,WUHU21623XXSP,2013-05-27 01:47:00,
2013-05-26 21:52:00,79.2,57.3,30.39,ENE,67,0.0,0.0,47,0.00,,,0.00,WUHU21623XXSP,2013-05-27 01:52:00,
2013-05-26 21:57:00,79.2,57.9,30.38,ENE,67,0.0,0.0,48,0.00,,,0.00,WUHU21623XXSP,2013-05-27 01:57:00,
2013-05-26 22:03:00,79.2,58.5,30.38,ENE,67,0.0,0.0,49,0.00,,,0.00,WUHU21623XXSP,2013-05-27 02:03:00,
2013-05-26 22:08:00,79.1,59.0,30.39,SE,135,0.0,0.0,50,0.00,,,0.00,WUHU21623XXSP,2013-05-27 02:08:00,
2013-05-26 22:13:00,78.9,59.9,30.40,East,90,0.0,0.0,52,0.00,,,0.00,WUHU21623XXSP,2013-05-27 02:13:00,
2013-05-26 22:18:00,78.7,60.3,30.39,ENE,67,0.0,0.0,53,0.00,,,0.00,WUHU21623XXSP,2013-05-27 02:18:00,
2013-05-26 22:23:00,78.5,60.1,30.40,ESE,112,0.0,0.0,53,0.00,,,0.00,WUHU21623XXSP,2013-05-27 02:23:00,
2013-05-26 22:28:00,78.3,61.0,30.40,ENE,67,0.0,0.0,55,0.00,,,0.00,WUHU21623XXSP,2013-05-27 02:28:00,
2013-05-26 22:33:00,78.2,61.4,30.40,NE,45,0.0,0.0,56,0.00,,,0.00,WUHU21623XXSP,2013-05-27 02:33:00,
2013-05-26 22:38:00,77.8,61.5,30.41,ENE,67,0.0,0.0,57,0.00,,,0.00,WUHU21623XXSP,2013-05-27 02:38:00,
2013-05-26 22:43:00,77.6,61.4,30.40,NE,45,0.0,0.0,57,0.00,,,0.00,WUHU21623XXSP,2013-05-27 02:43:00,
2013-05-26 22:48:00,77.6,61.9,30.40,ESE,112,0.0,0.0,58,0.00,,,0.00,WUHU21623XXSP,2013-05-27 02:48:00,
2013-05-26 22:53:00,77.4,61.7,30.40,ENE,67,0.0,0.0,58,0.00,,,0.00,WUHU21623XXSP,2013-05-27 02:53:00,
2013-05-26 22:58:00,77.1,61.9,30.41,East,90,0.0,0.0,59,0.00,,,0.00,WUHU21623XXSP,2013-05-27 02:58:00,
2013-05-26 23:03:00,76.9,61.7,30.41,NE,45,0.0,0.0,59,0.00,,,0.00,WUHU21623XXSP,2013-05-27 03:03:00,
2013-05-26 23:08:00,76.9,61.7,30.42,ESE,112,0.0,0.0,59,0.00,,,0.00,WUHU21623XXSP,2013-05-27 03:08:00,
2013-05-26 23:13:00,76.7,61.5,30.41,NE,45,0.0,0.0,59,0.00,,,0.00,WUHU21623XXSP,2013-05-27 03:13:00,
2013-05-26 23:18:00,76.5,61.8,30.41,ESE,112,0.0,0.0,60,0.00,,,0.00,WUHU21623XXSP,2013-05-27 03:18:00,
2013-05-26 23:23:00,76.4,61.7,30.42,ESE,112,0.0,0.0,60,0.00,,,0.00,WUHU21623XXSP,2013-05-27 03:23:00,
2013-05-26 23:28:00,76.2,61.5,30.42,East,90,0.0,0.0,60,0.00,,,0.00,WUHU21623XXSP,2013-05-27 03:28:00,
2013-05-26 23:33:00,76.0,61.3,30.42,ESE,112,0.0,0.0,60,0.00,,,0.00,WUHU21623XXSP,2013-05-27 03:33:00,
2013-05-26 23:38:00,75.8,61.1,30.42,NE,45,0.0,0.0,60,0.00,,,0.00,WUHU21623XXSP,2013-05-27 03:38:00,
2013-05-26 23:43:00,75.6,60.9,30.42,ESE,112,0.0,0.0,60,0.00,,,0.00,WUHU21623XXSP,2013-05-27 03:43:00,
2013-05-26 23:48:00,75.6,61.4,30.42,ESE,112,0.0,0.0,61,0.00,,,0.00,WUHU21623XXSP,2013-05-27 03:48:00,
2013-05-26 23:53:00,75.3,60.7,30.42,SE,135,0.0,0.0,60,0.00,,,0.00,WUHU21623XXSP,2013-05-27 03:53:00,
2013-05-26 23:58:00,75.3,61.1,30.42,ESE,112,0.0,0.0,61,0.00,,,0.00,WUHU21623XXSP,2013-05-27 03:58:00,